Regional Weather Roundup
Issued by NWS

Home | Current Version | Previous Version | Graphics & Text | Print | Product List | Glossary On
Versions: 1 2 3 4 5 6 7 8 9 10 11 12 13 14 15 16 17 18 19 20 21 22 23 24 25 26 27 28 29 30 31 32 33 34 35 36 37 38 39 40 41 42 43 44 45 46 47 48 49 50
000
ASUS43 KLMK 291410
RWRKY
KENTUCKY REGIONAL WEATHER ROUNDUP
NATIONAL WEATHER SERVICE LOUISVILLE KY
1000 AM EDT SUN MAY 29 2016

NOTE "FAIR" INDICATES FEW OR NO CLOUDS BELOW 12,000 FEET
WITH NO SIGNIFICANT WEATHER AND/OR OBSTRUCTIONS TO VISIBILITY.

KYZ001>023-026-027-061>063-070>075-291500-
WESTERN AND SOUTH CENTRAL KENTUCKY

CITY           SKY/WX    TMP DP  RH WIND       PRES   REMARKS
PADUCAH        MOSUNNY   77  68  73 SW6       30.10S
HENDERSON      SUNNY     79  66  65 SW6       30.09F
OWENSBORO      SUNNY     79  70  74 S9        30.12S
HOPKINSVILLE   SUNNY     75  69  81 SW5       30.13S
BOWLING GREEN  MOSUNNY   75  67  76 SW5       30.15S
GLASGOW        MOSUNNY   75  64  68 SW5       30.16S
$$

KYZ024-025-028>034-038-045-046-053-291500-
NORTH CENTRAL KENTUCKY

CITY           SKY/WX    TMP DP  RH WIND       PRES   REMARKS
LOUISVILLE/SDF MOSUNNY   79  66  64 SW5       30.13R
LOUISVILLE/LOU SUNNY     77  66  68 SW5       30.13R
FORT KNOX      SUNNY     77  67  70 SW7       30.13R
$$

KYZ035>037-039>044-047>052-055>060-089>105-291500-
NORTHEAST KENTUCKY

CITY           SKY/WX    TMP DP  RH WIND       PRES   REMARKS
LEXINGTON      LGT RAIN  74  65  73 SW6       30.16R
COVINGTON      PTSUNNY   73  66  78 SW5       30.12S
FRANKFORT      PTSUNNY   75  65  70 SW5       30.14R
$$

KYZ054-064>069-076>088-106>120-291500-
SOUTHEAST KENTUCKY

CITY           SKY/WX    TMP DP  RH WIND       PRES   REMARKS
JACKSON        CLOUDY    74  66  76 CALM      30.16S
LONDON         CLOUDY    72  64  76 CALM      30.17R
SOMERSET       PTSUNNY   72  63  73 CALM      30.18R
MIDDLESBORO    PTSUNNY   71  65  80 CALM      30.17S
MONTICELLO     CLOUDY    72  65  78 NW9       30.19R
$$




USA.gov is the U.S. government's official web portal to all federal, state and local government web resources and services.